Retour au catalogue

STARLINK-11365

ActifCommunicationsVLEO
NORAD 62886·PAYLOAD·🇺🇸 United States

Lancé Feb 4, 2025 depuis Cape Canaveral Space Force Station

Loading…

Prochains Passages (prochaines 24 heures)

TLE

FraisSource: CelesTrak SupGP

Époque: Sep 15, 2026, 03:29 UTC

1 62886C 25024H   26258.14562500  .00086910  00000+0  67451-3 0  2586
2 62886  43.0000 119.1705 0001931 267.5819 197.0086 15.70812861    16

Suivez STARLINK-11365 en temps réel avec AllMySat

Download on the App Store